Miscellaneous Local Product
Issued by NWS North Platte, NE

Home | Current Version | Previous Version | Text Only | Print | Product List | Glossary On
Versions: 1 2 3 4 5 6 7 8 9 10 11 12 13 14 15 16 17 18 19 20 21 22 23 24 25 26 27 28 29 30 31 32 33 34 35 36 37 38 39 40 41 42 43 44 45 46 47 48 49 50
742
AXUS43 KLBF 270210
MISLBF


WESTERN AND NORTH CENTRAL NEBRASKA HOURLY WEATHER ROUNDUP
NATIONAL WEATHER SERVICE NORTH PLATTE NE
900 PM CDT WED APR 26 2017

NOTE: "FAIR" INDICATES FEW OR NO CLOUDS BELOW 12,000 FEET WITH NO
SIGNIFICANT WEATHER AND/OR OBSTRUCTIONS TO VISIBILITY.

NOTE: STATIONS NOT REPORTING VARIABLES SUCH AS SKY/WEATHER OR
PRESSURE ARE PROVIDED BY RAWS AND APRS NETWORKS AND ARE NOT UNDER
NATIONAL WEATHER SERVICE QUALITY CONTROL.

...OBSERVATIONS IN AND NEAR THE EASTERN PANHANDLE OF NEBRASKA...

CITY           SKY/WX    TMP DP  RH WIND       PRES   REMARKS
PINE RIDGE     CLEAR     37  31  78 NE5       29.72F WCI  33
CHADRON        CLEAR     40  31  70 NE8       29.72S WCI  34
ALLIANCE       CLOUDY    42  31  64 NE7       29.69R
SIDNEY         MOCLDY    42  39  89 E14       29.70S
CRESCENT LAKE    N/A     46  30  54 E6G13       N/A
$$

...OBSERVATIONS IN NORTHERN NEBRASKA AND FAR SOUTHERN SOUTH DAKOTA...

CITY           SKY/WX    TMP DP  RH WIND       PRES   REMARKS
WINNER         FAIR      40  28  62 N9        29.70S WCI  34
VALENTINE      CLEAR     35  26  69 W8        29.71F WCI  29
THEDFORD       CLEAR     37  30  73 N3        29.72S
AINSWORTH      CLEAR     36  29  78 NW6       29.70F WCI  31
O`NEILL        CLEAR     37  29  71 N5        29.69S WCI  34
ORD            CLEAR     36  29  75 NW7       29.69S WCI  30
BROKEN BOW     CLEAR     37  28  70 N9        29.69F WCI  30
VALENTINE NWR    N/A     38  27  64 N9G16       N/A  WCI  31
HALSEY           N/A     40  28  63 N5          N/A
BUTTE            N/A     36  28  73 CALM        N/A
CHAMBERS         N/A     38  28  66 CALM        N/A
EWING            N/A     37  32  81 NW3         N/A
$$

...OBSERVATIONS IN SOUTHWEST NEBRASKA AND FAR NORTHEAST COLORADO...

CITY           SKY/WX    TMP DP  RH WIND       PRES   REMARKS
HOLYOKE        DRIZZLE   50  39  66 N3        29.69S
IMPERIAL       PTCLDY    45  32  60 NE9       29.69R
OGALLALA       CLEAR     46  32  57 NE6       29.70R
NORTH PLATTE   CLEAR     40  30  67 N8        29.70S WCI  34
MCCOOK         CLEAR     44  27  51 NE6       29.68S
LEXINGTON      CLEAR     39  30  70 N7        29.70R WCI  34
STAPLETON        N/A     36  29  74 CALM        N/A
GOTHENBURG       N/A     47  28  47 N7          N/A
CALLAWAY         N/A     43  32  64 N8          N/A
$$

...OBSERVATIONS IN CENTRAL LINCOLN COUNTY AREA...

CITY           SKY/WX    TMP DP  RH WIND       PRES   REMARKS
N.P. AIRPORT   CLEAR     40  30  67 N8        29.70S WCI  34
N.P. DOWNTOWN    N/A     44  31  61 NE3         N/A
N.P. SOUTHEAST   N/A     44  30  58 CALM        N/A
N.P. HILLCREST   N/A     42  32  67 NE9         N/A
$$

...SOME OBSERVATIONS FROM AROUND THE REGION...

CITY           SKY/WX    TMP DP  RH WIND       PRES   REMARKS
DENVER         MOCLDY    49  31  49 NE14      29.69R
LIMON          CLEAR     45  34  65 SW8       29.71S
ASPEN          CLOUDY    38  30  73 SW3       29.82R
LARAMIE        CLOUDY    35  32  88 NW15      29.74R WCI  25
CASPER         RAIN      40  33  76 N12G17    29.67R WCI  33
CHEYENNE       CLOUDY    43  31  62 NW7       29.70S
SCOTTSBLUFF    LGT RAIN  47  38  71 SE9       29.69R
GRAND ISLAND   PTCLDY    38  30  73 N9        29.71R WCI  31
OMAHA          CLOUDY    42  31  64 NW17      29.67R
SIOUX FALLS    CLOUDY    33  27  78 N15       29.67S WCI  23
PIERRE         CLEAR     36  27  69 NE8       29.70R WCI  30
RAPID CITY     MOCLDY    36  29  75 NW5       29.73S WCI  32
BISMARCK       CLOUDY    40  29  64 NE14      29.76S WCI  32
KANSAS CITY    CLOUDY    44  35  70 NW12      29.63R
HILL CITY      CLEAR     44  33  65 NE7       29.70R
WICHITA        MOCLDY    50  37  61 N7        29.70R
DODGE CITY     CLEAR     48  33  56 N5        29.72R
OKLAHOMA CITY  PTCLDY    51  40  65 CALM      29.72R
DALLAS         PTCLDY    58  46  64 NW9       29.76R
AMARILLO       CLEAR     52  33  48 E5        29.75R
$$




USA.gov is the U.S. government's official web portal to all federal, state and local government web resources and services.